This is the latest recevied weather packets stored in our database for station/object IZ1RFL-3. If no packets are shown the sender has not sent any weather packets the latest 10 day(s).
| Time | Temp. | Humidity | Pressure | Rain* | Wind** | Luminosity | Snow |
|---|---|---|---|---|---|---|---|
| 1777744863 | 21.11° C | 32% | 1020.5 hPa | - | - | - | - |
| 1777743963 | 21.67° C | 31% | 1020.6 hPa | - | - | - | - |
| 1777743063 | 21.67° C | 31% | 1020.7 hPa | - | - | - | - |
| 1777742163 | 22.22° C | 30% | 1020.7 hPa | - | - | - | - |
| 1777741263 | 22.22° C | 30% | 1020.8 hPa | - | - | - | - |
| 1777740363 | 22.22° C | 30% | 1020.9 hPa | - | - | - | - |
| 1777739463 | 22.78° C | 29% | 1020.9 hPa | - | - | - | - |
| 1777738563 | 22.78° C | 30% | 1021.1 hPa | - | - | - | - |
| 1777737663 | 23.33° C | 29% | 1021.2 hPa | - | - | - | - |
| 1777736763 | 23.33° C | 29% | 1021.4 hPa | - | - | - | - |
| 1777735863 | 23.33° C | 28% | 1021.5 hPa | - | - | - | - |
| 1777734963 | 23.33° C | 28% | 1021.7 hPa | - | - | - | - |
| 1777734063 | 23.89° C | 28% | 1021.8 hPa | - | - | - | - |
| 1777733163 | 23.33° C | 29% | 1022 hPa | - | - | - | - |
| 1777732263 | 23.33° C | 28% | 1022.3 hPa | - | - | - | - |
| 1777731363 | 23.33° C | 28% | 1022.7 hPa | - | - | - | - |
| 1777730463 | 23.89° C | 27% | 1022.9 hPa | - | - | - | - |
| 1777729563 | 23.33° C | 28% | 1023.2 hPa | - | - | - | - |
| 1777728663 | 23.89° C | 26% | 1023.5 hPa | - | - | - | - |
| 1777727763 | 23.33° C | 26% | 1023.6 hPa | - | - | - | - |
| 1777726863 | 24.44° C | 25% | 1023.8 hPa | - | - | - | - |
| 1777725963 | 22.22° C | 27% | 1024.1 hPa | - | - | - | - |
| 1777725063 | 22.78° C | 27% | 1024.3 hPa | - | - | - | - |
| 1777724163 | 22.78° C | 25% | 1024.5 hPa | - | - | - | - |
| 1777723263 | 23.33° C | 26% | 1024.7 hPa | - | - | - | - |
* Rain since midnight (hover to see other rain measurements)
** Current wind speed in m/s (hover to see current wind gust speed)